Find Starlink 11241

NORAD ID: 60936 Int'l Des: 2024-155 Owner: SPXS Country: US Constellation: starlink operational
LEOCIRCULAR

当前视图

正在加载3D地球...

About Starlink 11241

Starlink 11241 (NORAD 60936) is a starlink constellation satellite (v2 mini d2c) launched Aug 31, 2024 by SPXS of US. It operates in LEO, CIRCULAR orbit with a mass of 960.00 kg.

关于 Starlink 11241

正在加载描述...

即将过境

Passes for default location (London). Set your location on the main map for personalized predictions.

高度历史

Loading altitude history...

两行轨道根数

1 60936U 24155N 26167.85220226 .00000089 00000-0 55890-5 0 9999
2 60936 53.1585 212.6584 0000885 67.4079 292.7033 15.69708857103977
Epoch: Jun 16, 2026 • Age: 19 hours

当前状态

高度 374.5 km
速度 7.68 km/s
星下点 -42.52°S, 71.08°W
发射日期 Aug 31, 2024
运行时间 1.7 years
类型 internet

技术详情

分类 Payload
质量 960.00 kg
干质量 910.00 kg
总质量 960.00 kg
长度 0.30 m
直径 4.10 m
跨度 29.00 m
形状 Box + pan
制造商 SPXS
平台类型 Starlink V2MD
阶段状态 In Orbit
所有者/国家 SPXS/US

Most Searched